Location: Bauersach School (historical)
(38.0926°N, 89.4806°W)
Time: 03:58:52
(UTC+00:00)

IRIDIUM 104 - Pass Details

Date: 11 December 2025
Orbit: 776 x 779 km, 86.4° (Epoch: 21 January)

Event Time Altitude Azimuth Distance (km) Brightness Sun altitude
Rises 23:20:41 0° 358° (N) 3,269 7.4 -8.3°
Reaches altitude 10° 23:23:02 10° 358° (N) 2,337 6.6 -8.7°
Maximum altitude 23:28:17 87° 89° (E) 784 4.3 -9.7°
Drops below altitude 10° 23:33:29 10° 178° (S) 2,319 7.0 -10.7°
Sets 23:35:49 0° 179° (S) 3,242 7.8 -11.1°
